Zurück zum Katalog

THORAD AGENA D DEB

AktivSSO
NORAD 4717·DEBRIS·🇺🇸 United States

Gestartet Apr 8, 1970 von Vandenberg Space Force Base

Loading…

Nächste Überflüge (nächste 24 Stunden)

TLE

AktuellSource: Space-Track

Epoche: Sep 14, 2026, 04:03 UTC

1 04717U 70025CB  26257.16896708  .00000051  00000-0  14195-3 0  9999
2 04717 100.0024 333.0354 0002714  33.5223 355.6479 13.54938696785464

Verfolge THORAD AGENA D DEB in Echtzeit mit AllMySat

Download on the App Store